FW8548 Weather Reports


Display with metric or nautical units.
time (UTC)temp
F
wind
direction
speed
MPH
gust
MPH
rain 1hr
in
rain 24hr
in
rain mn
in
humidity
%
barometer
mb
20260507000043 59 203 5.0 18.0 0.00 0.00 0.00 82 1019.4
20260506234552 58 175 10.0 22.0 0.00 0.00 0.00 82 1019.5
20260506233039 59 244 5.0 19.0 0.00 0.00 0.00 81 1019.6
20260506231538 59 197 9.0 19.0 0.00 0.00 0.00 81 1019.5
20260506230039 59 200 9.0 18.0 0.00 0.00 0.00 80 1019.7
20260506224544 59 203 11.0 19.0 0.00 0.00 0.00 81 1019.9
20260506223042 60 162 6.0 20.0 0.00 0.00 0.00 79 1020.2
20260506221539 62 200 5.0 15.0 0.00 0.00 0.00 77 1020.2
20260506220045 61 215 9.0 16.0 0.00 0.00 0.00 76 1020.4
20260506214537 63 224 4.0 10.0 0.00 0.00 0.00 75 1020.6
20260506213035 62 185 6.0 16.0 0.00 0.00 0.00 76 1020.6
20260506211550 62 202 7.0 15.0 0.00 0.00 0.00 76 1020.7
20260506210041 63 209 3.0 13.0 0.00 0.00 0.00 76 1020.7
20260506204539 63 180 7.0 12.0 0.00 0.00 0.00 75 1020.7
20260506203036 64 221 6.0 14.0 0.00 0.00 0.00 73 1020.8
20260506201542 64 266 3.0 12.0 0.00 0.00 0.00 72 1021.0
20260506200041 66 302 2.0 11.0 0.00 0.00 0.00 69 1021.1
20260506194544 67 302 4.0 8.0 0.00 0.00 0.00 68 1021.2
20260506193045 66 336 4.0 12.0 0.00 0.00 0.00 68 1021.3
20260506191537 67 1 4.0 7.0 0.00 0.00 0.00 68 1021.4
20260506190037 66 340 2.0 5.0 0.00 0.00 0.00 70 1021.5
20260506184540 66 1 1.0 8.0 0.00 0.00 0.00 70 1021.5
20260506183042 63 185 2.0 8.0 0.00 0.00 0.00 74 1021.6
20260506181554 63 170 3.0 8.0 0.00 0.00 0.00 73 1021.5
20260506180037 62 148 2.0 9.0 0.00 0.00 0.00 76 1021.5
20260506174538 63 141 2.0 8.0 0.00 0.00 0.00 71 1021.4
20260506173105 63 168 1.0 5.0 0.00 0.00 0.00 72 1021.5
20260506171546 61 220 3.0 8.0 0.00 0.00 0.00 76 1021.5
20260506170039 62 0 3.0 7.0 0.00 0.00 0.00 74 1021.5
20260506164536 61 0 1.0 6.0 0.00 0.00 0.00 75 1021.6
20260506163041 63 310 2.0 6.0 0.00 0.00 0.00 73 1021.5
20260506161541 61 0 0.0 2.0 0.00 0.00 0.00 76 1021.6
20260506160046 59 333 0.0 5.0 0.00 0.00 0.00 80 1021.4
20260506154541 57 2 1.0 4.0 0.00 0.00 0.00 81 1021.6
20260506153036 58 337 2.0 5.0 0.00 0.00 0.00 80 1021.5
20260506151545 58 310 2.0 7.0 0.00 0.00 0.00 80 1021.4
20260506150045 58 0 1.0 4.0 0.00 0.00 0.00 82 1021.3
20260506144543 56 257 1.0 7.0 0.00 0.00 0.00 85 1021.2
20260506143038 56 208 2.0 8.0 0.00 0.00 0.00 86 1021.2
20260506141542 55 158 2.0 7.0 0.00 0.00 0.00 87 1020.9
20260506140043 54 200 2.0 7.0 0.00 0.00 0.00 88 1020.8
20260506134546 53 0 0.0 3.0 0.00 0.00 0.00 88 1020.7
20260506133039 53 0 0.0 4.0 0.00 0.00 0.00 88 1020.7
20260506131546 53 262 0.0 4.0 0.00 0.00 0.00 89 1020.7
20260506130040 53 0 0.0 2.0 0.00 0.00 0.00 89 1020.6
20260506124542 53 244 0.0 3.0 0.00 0.00 0.00 89 1020.4
20260506123041 53 279 0.0 3.0 0.00 0.00 0.00 89 1020.4
20260506121538 53 0 1.0 5.0 0.00 0.00 0.00 89 1020.3
20260506120039 53 0 0.0 4.0 0.00 0.00 0.00 89 1020.3
20260506114535 53 0 0.0 4.0 0.00 0.00 0.00 89 1020.2
20260506113041 53 220 0.0 3.0 0.00 0.00 0.00 89 1020.0
20260506111538 53 0 0.0 4.0 0.00 0.00 0.00 90 1020.0
20260506110037 53 347 1.0 4.0 0.00 0.00 0.00 91 1019.8
20260506104535 53 333 0.0 3.0 0.00 0.00 0.00 91 1019.7
20260506103039 53 316 0.0 5.0 0.00 0.00 0.00 91 1019.8
20260506101537 53 340 1.0 4.0 0.00 0.00 0.00 91 1019.6
20260506100040 53 338 1.0 3.0 0.00 0.00 0.00 90 1019.7
20260506094547 53 311 0.0 3.0 0.00 1.47 0.00 89 1019.8
20260506093039 53 0 2.0 5.0 0.00 1.47 0.00 89 1019.7
20260506091543 53 328 1.0 5.0 0.00 1.47 0.00 88 1019.7
20260506090041 53 0 0.0 6.0 0.00 1.47 0.00 88 1019.7
20260506084542 0 0 0.0 2.0 0.00 1.50 0.00 1019.7
20260506083037 54 0 0.0 1.0 0.00 1.50 0.00 100 1019.7
20260506081535 54 0 0.0 3.0 0.00 1.50 0.00 100 1019.8
20260506073040 54 0 0.0 1.0 0.00 1.54 0.00 100 1019.6
20260506071538 54 337 0.0 3.0 0.00 1.54 0.00 100 1019.5
20260506061539 54 0 0.0 2.0 0.00 1.56 1.54 100 1019.1
20260506044541 55 303 0.0 6.0 0.00 1.61 1.54 100 1018.6
20260506043036 54 0 0.0 4.0 0.00 1.61 1.54 100 1018.5
20260506041541 54 316 0.0 2.0 0.00 1.61 1.54 100 1018.4
20260506040042 55 310 1.0 5.0 0.00 1.61 1.54 100 1018.0
20260506034539 55 277 0.0 6.0 0.00 1.61 1.54 100 1017.9
20260506033037 55 285 0.0 4.0 0.00 1.61 1.54 100 1017.7
20260506031549 55 0 0.0 5.0 0.00 1.61 1.54 100 1017.5
20260506030041 55 293 1.0 5.0 0.00 1.61 1.54 100 1017.3
20260506024550 55 315 3.0 7.0 0.00 1.61 1.54 100 1017.2
20260506023038 55 293 1.0 5.0 0.00 1.61 1.54 100 1017.1
20260506021538 56 292 3.0 10.0 0.00 1.61 1.54 6 1016.9
20260506020036 56 297 2.0 8.0 0.00 1.61 1.54 100 1016.8
20260506014542 57 285 2.0 8.0 0.00 1.61 1.54 2 1016.8
20260506013040 57 284 1.0 9.0 0.00 1.61 1.54 13 1016.9
20260506011537 57 64 3.0 10.0 0.00 1.61 1.54 38 1016.9
20260506010036 58 287 1.0 9.0 0.00 1.61 1.54 48 1016.8
20260506004541 58 309 4.0 13.0 0.00 1.61 1.54 49 1016.7
20260506003042 60 330 4.0 10.0 0.00 1.61 1.54 56 1016.6
20260506001542 59 322 1.0 12.0 0.00 1.61 1.54 49 1016.4